Wilton, MN

3:07 PM CDT on July 24, 2016 (GMT -0500)
Bemidji-Beltrami County

Weather History for KBJI - March, 2014

Change the Weather History Date:

Saturday, March 22, 2014

  Actual Average Record
Temperature  
Mean Temperature 3 °F -  
Max Temperature 10 °F 35 °F 60 °F (2012)
Min Temperature -4 °F 15 °F -22 °F (1955)
Degree Days  
Heating Degree Days 62    
Moisture  
Dew Point -4 °F    
Average Humidity 73    
Maximum Humidity 80    
Minimum Humidity 66    
Precipitation  
Precipitation 0.00 in - - ()
Sea Level Pressure  
Sea Level Pressure 30.38 in    
Wind  
Wind Speed 11 mph (WNW)    
Max Wind Speed 17 mph    
Max Gust Speed 22 mph    
Visibility 9 miles    
Events      
Averages and records for this station are not official NWS values.
T = Trace of Precipitation, MM = Missing Value Source: NWS Daily Summary

Daily Weather History Graph

Daily Weather History Graph

Search for Another Location

Airport or City:

Trip Planner

Search our weather history database for the weather conditions in past years. The results will help you decide how hot, cold, wet, or windy it might be!

Date:

Astronomy

Mar. 22, 2014 Rise Set
Actual Time 7:18 AM CDT 7:35 PM CDT
Civil Twilight 6:47 AM CDT 8:06 PM CDT
Nautical Twilight 6:11 AM CDT 8:42 PM CDT
Astronomical Twilight 5:34 AM CDT 9:20 PM CDT
Moon 1:15 AM CDT (3/22) 10:42 AM CDT (3/22)
Length of Visible Light 13h 18m
Length of Day
12h 16m
Waning Gibbous, 65% of the Moon is Illuminated
Mar 22
Waning Gibbous
Mar 23
Last Quarter
Mar 30
New
Apr 7
First Quarter
Apr 15
Full

Hourly Weather History & Observations

Time (CDT) Temp. Windchill Dew Point Humidity Pressure Visibility Wind Dir Wind Speed Gust Speed Precip Events Conditions
12:12 AM 1.0 °F -15.8 °F -4.0 °F 79% 30.26 in 10.0 mi NW 11.5 mph - N/A   Clear
12:32 AM 0.9 °F -14.2 °F -4.5 °F 78% 30.27 in 10.0 mi NW 9.2 mph - N/A   Clear
12:52 AM 0.5 °F -14.6 °F -4.9 °F 78% 30.27 in 10.0 mi NW 9.2 mph - N/A   Clear
1:12 AM 0.3 °F -16.7 °F -5.1 °F 78% 30.28 in 10.0 mi NW 11.5 mph - N/A   Clear
1:32 AM 0.1 °F -16.0 °F -5.3 °F 78% 30.29 in 10.0 mi NW 10.4 mph - N/A   Clear
1:52 AM -0.4 °F -17.6 °F -5.8 °F 78% 30.29 in 10.0 mi NW 11.5 mph - N/A   Clear
2:12 AM -0.4 °F -17.6 °F -5.8 °F 78% 30.29 in 10.0 mi NW 11.5 mph - N/A   Clear
2:32 AM -0.4 °F -17.6 °F -5.8 °F 78% 30.29 in 10.0 mi NW 11.5 mph - N/A   Clear
2:52 AM -0.4 °F -18.4 °F -6.0 °F 77% 30.30 in 10.0 mi NW 12.7 mph - N/A   Clear
3:12 AM -0.4 °F -18.4 °F -6.0 °F 77% 30.30 in 10.0 mi NW 12.7 mph - N/A   Clear
3:32 AM -0.4 °F -18.4 °F -6.2 °F 77% 30.30 in 10.0 mi NW 12.7 mph - N/A   Clear
3:52 AM -0.4 °F -19.2 °F -6.7 °F 75% 30.31 in 10.0 mi NW 13.8 mph - N/A   Clear
4:12 AM -0.6 °F -18.6 °F -6.7 °F 75% 30.30 in 10.0 mi NW 12.7 mph - N/A   Clear
4:32 AM -0.8 °F -18.9 °F -6.9 °F 75% 30.31 in 10.0 mi NW 12.7 mph 17.3 mph N/A   Clear
4:52 AM -1.3 °F -18.7 °F -7.4 °F 75% 30.31 in 10.0 mi NW 11.5 mph - N/A   Clear
5:12 AM -1.7 °F -18.3 °F -7.6 °F 76% 30.31 in 10.0 mi NW 10.4 mph 16.1 mph N/A   Clear
5:32 AM -2.0 °F -19.6 °F -7.8 °F 76% 30.32 in 10.0 mi NW 11.5 mph - N/A   Clear
5:52 AM -2.2 °F -19.9 °F -8.0 °F 76% 30.33 in 10.0 mi WNW 11.5 mph - N/A   Clear
6:12 AM -2.7 °F -19.6 °F -8.5 °F 76% 30.34 in 10.0 mi WNW 10.4 mph - N/A   Clear
6:32 AM -3.8 °F -21.0 °F -9.0 °F 78% 30.34 in 10.0 mi NW 10.4 mph - N/A   Clear
6:51 AM -4.0 °F -19.0 °F -9.0 °F 79% 30.35 in 10.0 mi WNW 8.1 mph - N/A   Clear
7:12 AM -4.4 °F -21.6 °F -9.6 °F 78% 30.36 in 10.0 mi NW 10.4 mph - N/A   Clear
7:32 AM -4.2 °F -22.3 °F -9.4 °F 78% 30.36 in 10.0 mi NW 11.5 mph - N/A   Clear
7:52 AM -4.0 °F -21.2 °F -9.4 °F 78% 30.37 in 10.0 mi NW 10.4 mph - N/A   Clear
8:12 AM -3.5 °F -20.5 °F -8.7 °F 78% 30.38 in 10.0 mi WNW 10.4 mph - N/A   Clear
8:32 AM -2.7 °F -19.6 °F -8.5 °F 76% 30.38 in 10.0 mi NW 10.4 mph - N/A   Clear
8:52 AM -1.3 °F -19.6 °F -7.8 °F 74% 30.39 in 10.0 mi NW 12.7 mph 16.1 mph N/A   Clear
9:12 AM -0.6 °F -18.6 °F -7.1 °F 74% 30.39 in 10.0 mi NW 12.7 mph 17.3 mph N/A   Clear
9:32 AM 0.1 °F -16.0 °F -6.7 °F 73% 30.40 in 10.0 mi NW 10.4 mph 16.1 mph N/A   Clear
9:52 AM 0.9 °F -16.8 °F -6.0 °F 73% 30.41 in 10.0 mi NW 12.7 mph 17.3 mph N/A   Clear
10:12 AM 1.8 °F -14.9 °F -5.6 °F 71% 30.41 in 10.0 mi NW 11.5 mph - N/A   Scattered Clouds
10:32 AM 2.7 °F -14.5 °F -4.9 °F 71% 30.41 in 10.0 mi NW 12.7 mph 18.4 mph N/A   Mostly Cloudy
10:51 AM 3.6 °F -14.1 °F -4.2 °F 70% 30.42 in 10.0 mi NW 13.8 mph - N/A   Overcast
11:12 AM 4.1 °F -14.1 °F -3.6 °F 70% 30.42 in 7.0 mi NNW 15.0 mph - N/A   Overcast
11:32 AM 4.8 °F -13.2 °F -2.9 °F 70% 30.43 in 5.0 mi NW 15.0 mph - N/A   Haze
11:52 AM 5.7 °F -12.0 °F -2.4 °F 69% 30.42 in 7.0 mi NW 15.0 mph - N/A   Overcast
12:12 PM 6.8 °F -11.8 °F -0.9 °F 71% 30.43 in 5.0 mi NW 17.3 mph - N/A   Haze
12:32 PM 7.3 °F -7.1 °F -0.9 °F 69% 30.43 in 5.0 mi NW 10.4 mph - N/A   Haze
12:51 PM 7.7 °F -8.2 °F -0.8 °F 68% 30.43 in 10.0 mi WNW 12.7 mph - N/A   Overcast
1:12 PM 8.2 °F -8.2 °F 0.1 °F 70% 30.43 in 7.0 mi WNW 13.8 mph 19.6 mph N/A   Overcast
1:32 PM 8.1 °F -8.4 °F 0.3 °F 71% 30.43 in 7.0 mi WNW 13.8 mph - N/A   Overcast
1:52 PM 7.7 °F -5.8 °F -0.4 °F 70% 30.43 in 7.0 mi WNW 9.2 mph - N/A   Overcast
2:12 PM 8.4 °F -9.2 °F 1.0 °F 72% 30.43 in 5.0 mi West 16.1 mph - N/A   Haze
2:32 PM 9.1 °F -6.4 °F 1.0 °F 70% 30.42 in 5.0 mi WNW 12.7 mph 19.6 mph N/A   Haze
2:52 PM 8.8 °F -6.8 °F -0.0 °F 67% 30.42 in 7.0 mi WNW 12.7 mph 18.4 mph N/A   Overcast
3:12 PM 9.0 °F -6.6 °F 0.5 °F 69% 30.42 in 10.0 mi WNW 12.7 mph - N/A   Mostly Cloudy
3:32 PM 10.0 °F -5.9 °F 1.2 °F 68% 30.42 in 10.0 mi WNW 13.8 mph - N/A   Overcast
3:52 PM 9.3 °F -8.0 °F 0.5 °F 67% 30.41 in 10.0 mi WNW 16.1 mph - N/A   Mostly Cloudy
4:12 PM 9.1 °F -7.7 °F 0.1 °F 67% 30.41 in 10.0 mi NW 15.0 mph 18.4 mph N/A   Mostly Cloudy
4:32 PM 9.5 °F -5.9 °F 0.9 °F 68% 30.42 in 10.0 mi WNW 12.7 mph - N/A   Mostly Cloudy
4:52 PM 10.0 °F -6.5 °F 0.7 °F 66% 30.42 in 10.0 mi WNW 15.0 mph - N/A   Overcast
5:12 PM 9.5 °F -7.8 °F 0.5 °F 67% 30.42 in 10.0 mi WNW 16.1 mph - N/A   Overcast
5:32 PM 8.6 °F -8.9 °F -0.0 °F 68% 30.42 in 10.0 mi WNW 16.1 mph - N/A   Mostly Cloudy
5:52 PM 8.6 °F -7.0 °F -0.4 °F 67% 30.42 in 10.0 mi WNW 12.7 mph - N/A   Scattered Clouds
6:12 PM 8.4 °F -9.7 °F -0.6 °F 67% 30.43 in 10.0 mi WNW 17.3 mph 21.9 mph N/A   Scattered Clouds
6:32 PM 8.2 °F -7.5 °F -0.6 °F 67% 30.43 in 10.0 mi WNW 12.7 mph - N/A   Clear
6:52 PM 7.7 °F -5.8 °F -0.8 °F 68% 30.42 in 10.0 mi WNW 9.2 mph - N/A   Scattered Clouds
7:12 PM 7.2 °F -6.4 °F -1.1 °F 69% 30.42 in 10.0 mi WNW 9.2 mph - N/A   Clear
7:32 PM 6.3 °F -8.4 °F -1.7 °F 70% 30.42 in 10.0 mi West 10.4 mph - N/A   Clear
7:52 PM 5.7 °F -9.1 °F -2.2 °F 70% 30.42 in 10.0 mi West 10.4 mph - N/A   Clear
8:12 PM 5.0 °F -8.1 °F -2.6 °F 71% 30.43 in 10.0 mi WNW 8.1 mph - N/A   Clear
8:32 PM 4.3 °F -9.0 °F -2.7 °F 73% 30.43 in 10.0 mi West 8.1 mph - N/A   Clear
8:52 PM 3.9 °F -8.2 °F -3.1 °F 73% 30.43 in 10.0 mi West 6.9 mph - N/A   Clear
9:12 PM 2.8 °F -8.2 °F -3.8 °F 74% 30.43 in 10.0 mi West 5.8 mph - N/A   Clear
9:32 PM 2.5 °F -8.6 °F -3.5 °F 76% 30.43 in 10.0 mi West 5.8 mph - N/A   Clear
9:52 PM 2.3 °F -8.8 °F -4.0 °F 75% 30.43 in 10.0 mi West 5.8 mph - N/A   Clear
10:12 PM 1.8 °F -9.5 °F -4.0 °F 77% 30.43 in 10.0 mi West 5.8 mph - N/A   Clear
10:32 PM 0.9 °F -11.9 °F -4.5 °F 78% 30.43 in 10.0 mi West 6.9 mph - N/A   Clear
10:52 PM 0.9 °F -10.5 °F -4.5 °F 78% 30.44 in 10.0 mi West 5.8 mph - N/A   Clear
11:12 PM 0.3 °F -11.2 °F -4.9 °F 79% 30.44 in 10.0 mi West 5.8 mph - N/A   Clear
11:32 PM 0.3 °F -11.2 °F -4.5 °F 80% 30.44 in 10.0 mi West 5.8 mph - N/A   Clear
11:52 PM 0.1 °F -11.4 °F -4.7 °F 80% 30.44 in 10.0 mi West 5.8 mph - N/A   Clear